Regional Weather Roundup
Issued by NWS

Home | Current Version | Previous Version | Graphics & Text | Print | Product List | Glossary On
Versions: 1 2 3 4 5 6 7 8 9 10 11 12 13 14 15 16 17 18 19 20 21 22 23 24 25 26 27 28 29 30 31 32 33 34 35 36 37 38 39 40 41 42 43 44 45 46 47 48 49 50
519
ASUS43 KDMX 182101
RWRIA

WEATHER ROUNDUP FOR IOWA
NATIONAL WEATHER SERVICE DES MOINES IA
400 PM CDT FRI AUG 18 2017

NOTE: "FAIR" INDICATES FEW OR NO CLOUDS BELOW 12,000 FEET WITH NO
SIGNIFICANT WEATHER AND/OR OBSTRUCTIONS TO VISIBILITY.

* - THESE STATIONS ARE NOT NWS STATIONS...THUS NOT UNDER NWS
QUALITY CONTROL.  THEY ALSO DO NOT REPORT WEATHER SUCH
AS PRECIPITATION OR FOG.

IAZ001>003-012>014-020>022-031>034-043>046-182200-
   NORTHWEST IOWA

CITY           SKY/WX    TMP DP  RH WIND       PRES   REMARKS
CARROLL *      SUNNY     81  66  61 CALM      29.89F HX  83
CHEROKEE *     SUNNY     78  64  62 SE5       29.90S HX  80
DENISON *      SUNNY     81  64  57 SW6       29.91F HX  82
LE MARS *      SUNNY     81  64  57 CALM      29.89S HX  82
ORANGE CITY *  MOSUNNY   79  64  61 S5        29.90F HX  81
SHELDON *      SUNNY     79  64  61 VRB7      29.88F HX  81
SIOUX CITY     SUNNY     82  67  60 S5        29.89S HX  84
SPENCER        SUNNY     78  59  51 S7        29.90F
STORM LAKE *   SUNNY     75  63  64 CALM      29.91F
$$

IAZ055>058-069>071-079>083-090>094-182200-
   SOUTHWEST IOWA

CITY           SKY/WX    TMP DP  RH WIND       PRES   REMARKS
ATLANTIC *     SUNNY     82  64  54 W8        29.89F HX  84
AUDUBON *      SUNNY     82  66  57 CALM      29.91S HX  85
CLARINDA *     MOSUNNY   86  64  48 W6G12     29.92S HX  87
COUNCIL BLFS * SUNNY     84  63  48 NW8       29.90F HX  85
CRESTON *      SUNNY     86  61  42 NW9       29.91S HX  86
HARLAN  *      SUNNY     82  64  54 W5        29.93S HX  84
LAMONI         MOSUNNY   81  63  54 NW7       29.90R HX  82
RED OAK *      MOSUNNY   84  64  51 W5        29.90S HX  86
SHENANDOAH *   CLOUDY    84  66  54 VRB3      29.90F HX  86
$$

IAZ047>049-059>061-072>074-084-182200-
   CENTRAL IOWA

CITY           SKY/WX    TMP DP  RH WIND       PRES   REMARKS
AMES           MOSUNNY   80  66  62 VRB5      29.88F HX  82
ANKENY *       MOSUNNY   84  63  48 W7        29.87F HX  85
BOONE *        MOSUNNY   81  64  57 NE7       29.89S HX  82
CHARITON *     SUNNY     88  59  37 W12       29.87F HX  87
DES MOINES     MOSUNNY   86  63  45 NW9       29.86S HX  87
GRINNELL*      MOSUNNY   80  66  63 CALM      29.90F HX  82
KNOXVILLE *    SUNNY     86  59  39 NW9G16    29.85F HX  85
MARSHALLTOWN   MOSUNNY   79  65  62 VRB6      29.89F HX  81
NEWTON *       SUNNY     81  68  65 N5        29.88F HX  83
PELLA *        SUNNY     87  58  36 CALM      29.87F HX  86
PERRY *          N/A     83  66  56 CALM      29.88F HX  84
$$

IAZ004>006-015-016-023>025-035-036-182200-
   NORTH CENTRAL IOWA

CITY           SKY/WX    TMP DP  RH WIND       PRES   REMARKS
ALGONA *       SUNNY     77  61  57 N5        29.91F
CLARION *      MOSUNNY   77  63  61 E3        29.91F
ESTHERVILLE    MOSUNNY   75  63  66 VRB5      29.90F
FORT DODGE *   MOSUNNY   77  63  61 N3        29.91F
MASON CITY     MOSUNNY   72  61  68 NE10      29.93F
FOREST CITY *  CLOUDY    73  61  64 NE3       29.92F
WEBSTER CITY * MOSUNNY   77  63  61 CALM      29.89S
IOWA FALLS *     N/A     78  62  57 CALM      29.92S HX  80
$$

IAZ007>011-017>019-026>030-037>042-050>054-066-182200-
   NORTHEAST IOWA

CITY           SKY/WX    TMP DP  RH WIND       PRES   REMARKS
CEDAR RAPIDS   MOSUNNY   80  62  54 NW7       29.89S HX  81
CHARLES CITY * CLOUDY    72  63  73 N8        29.93S
CLINTON *      SUNNY     79  64  60 NW7       29.89S HX  81
DECORAH *      CLOUDY    68  61  77 VRB3      29.92S
DUBUQUE        PTSUNNY   76  59  55 NW8       29.90S
MONTICELLO *   PTSUNNY   77  59  53 W6        29.90R
OELWEIN *      MOSUNNY   75  61  60 CALM      29.92F
WATERLOO       MOSUNNY   76  58  53 N8        29.89F
$$

IAZ064-065-067-068-078-182200-
   EAST CENTRAL IOWA

CITY           SKY/WX    TMP DP  RH WIND       PRES   REMARKS
DAVENPORT      MOSUNNY   80  63  55 SW8       29.90F HX  81
IOWA CITY      PTSUNNY   82  64  54 S6        29.89S HX  83
MUSCATINE *    SUNNY     84  64  51 SW7G14    29.87F HX  86
QUAD CITIES    PTSUNNY   82  62  50 SW8       29.87F HX  83
$$

IAZ062-063-075>077-085>089-095>099-182200-
   SOUTHEAST IOWA

CITY           SKY/WX    TMP DP  RH WIND       PRES   REMARKS
BURLINGTON     MOSUNNY   82  68  62 S12       29.88F HX  85
FAIRFIELD *    SUNNY     86  61  42 SW9G17    29.86F HX  86
FORT MADISON * SUNNY     82  68  61 S10       29.88F HX  85
KEOKUK *       CLOUDY    86  66  51 SW13      29.87F HX  88
OSKALOOSA *      N/A     87  63  44 W8        29.86F HX  88
OTTUMWA        SUNNY     89  62  40 W7        29.85F HX  89
WASHINGTON *   MOSUNNY   84  68  58 SW7       29.88F HX  87
$$

ABBREVIATIONS USED IN REMARKS
   TC - TEMPERATURES IN CELSIUS
  WCI - WIND CHILL INDEX
   HX - HEAT INDEX
  VSB - VISIBILITY
$$





USA.gov is the U.S. government's official web portal to all federal, state and local government web resources and services.